Miscellaneous Local Product
Issued by NWS North Platte, NE

Home | Current Version | Previous Version | Text Only | Print | Product List | Glossary On
Versions: 1 2 3 4 5 6 7 8 9 10 11 12 13 14 15 16 17 18 19 20 21 22 23 24 25 26 27 28 29 30 31 32 33 34 35 36 37 38 39 40 41 42 43 44 45 46 47 48 49 50
000
AXUS43 KLBF 050510
MISLBF


WESTERN AND NORTH CENTRAL NEBRASKA HOURLY WEATHER ROUNDUP
NATIONAL WEATHER SERVICE NORTH PLATTE NE
1200 AM CDT THU MAY 05 2016

NOTE: "FAIR" INDICATES FEW OR NO CLOUDS BELOW 12,000 FEET WITH NO
SIGNIFICANT WEATHER AND/OR OBSTRUCTIONS TO VISIBILITY.

NOTE: STATIONS NOT REPORTING VARIABLES SUCH AS SKY/WEATHER OR
PRESSURE ARE PROVIDED BY RAWS AND APRS NETWORKS AND ARE NOT UNDER
NATIONAL WEATHER SERVICE QUALITY CONTROL.

...OBSERVATIONS IN AND NEAR THE EASTERN PANHANDLE OF NEBRASKA...

CITY           SKY/WX    TMP DP  RH WIND       PRES   REMARKS
PINE RIDGE     CLEAR     56  39  53 CALM      30.05S
CHADRON        CLEAR     55  40  56 CALM      30.03S
ALLIANCE       CLEAR     48  42  80 S7        30.09R
SIDNEY         CLEAR     48  41  76 S8        30.13F
CRESCENT LAKE    N/A     56  42  60 S6          N/A
BIG SPRINGS      N/A     58  43  58 CALM        N/A
$$

...OBSERVATIONS IN NORTHERN NEBRASKA AND FAR SOUTHERN SOUTH DAKOTA...

CITY           SKY/WX    TMP DP  RH WIND       PRES   REMARKS
WINNER         FAIR      53  39  59 S6        30.05S
VALENTINE      CLEAR     54  37  52 SE3       30.07S
THEDFORD       CLEAR     53  39  58 SE3       30.09S
AINSWORTH      CLEAR     49  39  68 SE6       30.08S
O`NEILL        CLEAR     51  45  78 SW3       30.07S
ORD            CLEAR     43  39  86 CALM      30.07S
BROKEN BOW     CLEAR     44  38  79 CALM      30.08S
VALENTINE NWR    N/A     51  40  65 CALM        N/A
BUTTE            N/A     57  38  50 CALM        N/A
HALSEY           N/A     57  33  41 SE5         N/A
CHAMBERS         N/A     48  36  64 CALM        N/A
EWING            N/A     47  38  71 CALM        N/A
$$

...OBSERVATIONS IN SOUTHWEST NEBRASKA AND FAR NORTHEAST COLORADO...

CITY           SKY/WX    TMP DP  RH WIND       PRES   REMARKS
HOLYOKE        FAIR      54  41  62 S6        30.12S
IMPERIAL       CLEAR     53  42  66 SE8       30.10S
OGALLALA       CLEAR     54  38  56 NE3       30.10S
NORTH PLATTE   CLEAR     48  40  73 E5        30.08S
MCCOOK         CLEAR     57  41  55 CALM      30.09S
LEXINGTON      CLEAR     49  42  77 CALM      30.08F
PAXTON           N/A     54  43  67 CALM        N/A
STAPLETON        N/A     54  39  57 CALM        N/A
GOTHENBURG       N/A     57  38  49 CALM        N/A
CALLAWAY         N/A     52  38  60 SE3         N/A
$$

...OBSERVATIONS IN CENTRAL LINCOLN COUNTY AREA...

CITY           SKY/WX    TMP DP  RH WIND       PRES   REMARKS
N.P. AIRPORT   CLEAR     48  40  73 E5        30.08S
N.P. DOWNTOWN    N/A     57  42  57 CALM        N/A
N.P. SOUTHEAST   N/A     55  41  59 CALM        N/A
N.P. HILLCREST   N/A     56  40  54 E7          N/A
$$

...SOME OBSERVATIONS FROM AROUND THE REGION...

CITY           SKY/WX    TMP DP  RH WIND       PRES   REMARKS
DENVER         PTCLDY    49  38  65 S12       30.16S
LARAMIE        CLEAR     44  35  70 S12       30.22S
CHEYENNE       CLEAR     52  35  52 S7        30.18S
SCOTTSBLUFF    CLEAR     54  42  64 E6        30.09S
RAPID CITY     CLEAR     53  43  68 SE5       30.02F
BISMARCK       CLEAR     56  46  69 CALM      29.95S
PIERRE         CLEAR     57  40  52 S7        30.01S
SIOUX FALLS    CLEAR     46  37  71 W3        30.03R
OMAHA          CLEAR     52  43  71 CALM      30.01S
GRAND ISLAND   CLEAR     50  38  63 NW3       30.08R
KANSAS CITY    CLEAR     55  37  50 N7        30.01S
WICHITA        CLEAR     54  40  59 NW3       30.05S
OKLAHOMA CITY  CLEAR     62  42  47 N7        30.04S
DALLAS         CLEAR     66  52  60 N8        29.99R
AMARILLO       CLEAR     56  39  53 SE8       30.15S
DODGE CITY     CLEAR     57  43  59 SE6       30.10S
HAYS           CLEAR     48  39  71 CALM      30.08S
GOODLAND       CLEAR     53  42  66 S10       30.12S
$$




USA.gov is the U.S. government's official web portal to all federal, state and local government web resources and services.